[[[{"header":{"parameterUnit":"kt","parameterCategory":2,"dx":1,"dy":1,"la1":30.253999710083008,"la2":30.299108505249023,"lo1":-89.0895004272461,"lo2":-89.04439544677734,"nx":28,"ny":28,"refTime":"2022-09-21T09:00:00:Z","depth":0,"parameterNumber":1,"parameterNumberName":"U-component_of_WINDS"},"data":[2.7644,2.7691,2.7695,2.7752,2.7765,2.7804,2.7819,2.7839,2.7856,2.7904,2.7932,2.7941,2.7959,2.7994,2.8025,2.8028,2.8041,2.8056,2.8057,2.7986,2.7976,2.7967,2.7955,2.8059,2.8059,2.813,2.8131,2.8131,2.7596,2.7609,2.764,2.7671,2.7698,2.7686,2.771,2.7733,2.7768,2.7789,2.7817,2.7859,2.7892,2.7905,2.7938,2.7961,2.7957,2.797,2.7968,2.7971,2.7895,2.7883,2.7973,2.7973,2.7973,2.7973,2.7973,2.7973,2.7509,2.7537,2.7558,2.759,2.7607,2.7629,2.7656,2.7665,2.7694,2.7728,2.7726,2.7766,2.7787,2.7827,2.7841,2.7873,2.7859,2.7873,2.7877,2.7881,2.7885,2.7784,2.7878,2.7878,2.7878,2.7878,2.7877,0,2.7446,2.7447,2.7475,2.7505,2.7529,2.7552,2.7574,2.7591,2.7592,2.7617,2.7652,2.7673,2.7714,2.7748,2.7778,2.7789,2.7778,2.7777,2.7787,2.7789,2.7788,2.7789,2.7666,2.7774,2.7773,2.7772,2.7772,2.7771,2.7359,2.739,2.7412,2.7432,2.7444,2.7475,2.7495,2.7493,2.7514,2.754,2.7565,2.7598,2.7624,2.768,2.7689,2.772,2.7714,2.7756,2.7719,2.772,2.7715,2.7713,2.7717,2.7762,2.7763,2.7764,2.7765,0,2.731,2.7313,2.7362,2.738,2.7386,2.7419,2.7434,2.7462,2.7466,2.7505,2.7514,2.7521,2.7555,2.7557,2.7596,2.7596,2.7653,2.7647,2.7647,2.7645,2.7683,2.7679,2.7802,2.7819,2.7711,2.7712,2.7713,0,2.7237,2.7277,2.728,2.7308,2.7354,2.735,2.7396,2.7404,2.742,2.745,2.7437,2.7466,2.7463,2.7493,2.7492,2.7539,2.7546,2.7549,2.7548,2.755,2.7549,2.7559,2.7554,2.7544,2.7544,2.7543,2.7543,0,2.7159,2.7207,2.7253,2.7264,2.7285,2.7307,2.7317,2.7335,2.7353,2.7377,2.7389,2.7417,2.7433,2.7455,2.7454,2.743,2.7511,2.7476,2.7514,2.7514,2.753,2.7529,2.7639,2.7542,2.7542,2.7542,2.7541,0,2.7099,2.7122,2.7188,2.7206,2.7218,2.7248,2.7275,2.7301,2.732,2.7321,2.734,2.733,2.737,2.7336,2.7391,2.7359,2.7376,2.7381,2.7384,2.7387,2.7348,2.741,2.7514,2.7525,2.7392,2.739,2.7389,0,2.701,2.7075,2.7071,2.7133,2.7163,2.7146,2.7179,2.7196,2.72,2.7227,2.7231,2.7261,2.7236,2.7245,2.7273,2.7278,2.732,2.7273,2.7312,2.7314,2.7308,2.7404,2.7419,2.7491,2.7373,2.7375,2.7376,0,2.694,2.6964,2.6975,2.6988,2.7007,2.7032,2.707,2.7098,2.7116,2.7135,2.7167,2.7209,2.7191,2.7206,2.72,2.7229,2.7292,2.7206,2.7206,2.7222,2.7364,2.7379,2.7391,2.7282,2.7284,2.7286,2.7363,0,2.6851,2.6882,2.6912,2.6938,2.6957,2.6994,2.6993,2.7013,2.7006,2.7009,2.7055,2.7067,2.7095,2.7108,2.71,2.7164,2.7153,2.7133,2.7099,2.7162,2.7187,2.7198,2.7061,2.706,2.7059,2.7059,0,0,2.6764,2.6809,2.6801,2.6837,2.6852,2.6831,2.6872,2.6884,2.6909,2.692,2.6901,2.6961,2.6971,2.7027,2.7046,2.7057,2.7069,2.7045,2.7132,2.714,2.7147,2.7175,2.7186,2.7057,2.7057,2.7056,2.7056,0,2.6731,2.6741,2.678,2.6792,2.681,2.681,2.682,2.6833,2.6836,2.688,2.6861,2.6889,2.6935,2.6948,2.6961,2.7039,2.7023,2.7048,2.7091,2.7123,2.7132,2.7141,2.7169,2.718,2.7054,2.7054,2.7054,0,2.6662,2.6672,2.669,2.6722,2.6733,2.6763,2.6727,2.676,2.6783,2.6756,2.68,2.6806,2.6823,2.6875,2.6898,2.6881,2.6983,2.6949,2.6955,2.6957,2.6988,2.6999,2.7009,2.6877,2.6877,2.6876,0,0,2.6633,2.6661,2.6669,2.6714,2.6722,2.6722,2.6737,2.673,2.6745,2.6751,2.6758,2.6773,2.6801,2.6818,2.6843,2.69,2.6904,2.6927,2.6936,2.6943,2.6949,2.6981,2.6992,2.6874,2.6874,2.6874,0,0,2.6619,2.663,2.6619,2.667,2.6685,2.6696,2.6723,2.671,2.6732,2.6727,2.6716,2.672,2.6768,2.6774,2.6744,2.6831,2.6797,2.6804,2.6825,2.6835,2.6843,2.684,2.6707,0,0,0,0,0,2.6582,2.6628,2.6618,2.6627,2.6665,2.6701,2.6706,2.6698,2.6675,2.6698,2.6701,2.6682,2.6756,2.6729,2.6738,2.6771,2.6845,2.685,2.6855,2.6895,2.6906,2.6915,0,0,0,0,0,0,2.6585,2.6595,2.6617,2.6629,2.6638,2.67,2.6658,2.6658,2.6673,2.6669,2.6682,2.6683,2.6677,2.6724,2.6732,2.6764,2.6705,2.6847,2.6851,2.6855,2.6899,2.6908,2.6916,0,0,0,0,0,2.6588,2.6596,2.666,2.6629,2.6636,2.6637,2.6657,2.6656,2.6667,2.6671,2.6671,2.666,2.6678,2.6684,2.6729,2.676,2.6699,2.6702,2.6849,2.6853,2.6856,2.6903,0,0,0,0,0,0,2.659,2.6595,2.6661,2.6663,2.661,2.6633,2.6637,2.6654,2.6669,2.6669,2.6648,2.6644,2.6679,2.6683,2.6688,2.676,2.6695,2.6698,2.67,2.6852,2.6855,2.6857,0,0,0,0,0,0,2.6591,2.6597,2.6662,2.6639,2.6638,2.663,2.6633,2.667,2.6669,2.6644,2.6642,2.6646,2.6672,2.6683,2.6687,2.6745,2.6692,2.6695,2.6697,2.6698,2.6854,2.6857,0,0,0,0,0,0,2.6593,2.6599,2.6638,2.6638,2.6637,2.6659,2.6662,2.6702,2.6649,2.6644,2.6644,2.6642,2.6673,2.6676,2.6686,2.6743,2.6744,2.6692,2.6694,2.6695,2.6696,0,0,0,0,0,0,0,2.6595,2.6561,2.6649,2.6637,2.6636,2.6682,2.6682,2.6683,2.6649,2.6647,2.6645,2.6643,2.6676,2.6679,2.6682,2.6741,0,0,2.6692,2.6693,0,0,0,0,0,0,0,0,2.6559,2.6561,2.6649,2.665,2.665,2.6682,2.6682,2.6683,2.6648,2.6647,2.6645,2.6644,2.6677,2.6679,2.6682,0,0,0,0,0,0,0,0,0,0,0,0,0,0,0,2.6649,2.665,0,2.6682,2.6682,2.6683,2.6648,2.6647,2.6646,2.6644,2.6677,2.6679,2.6681,0,0,0,0,0,0,0,0,0,0,0,0,0,0,0,0,0,0,0,0,0,0,0,0,0,0,0,0,0,0,0,0,0,0,0,0,0,0,0,0,0,0,0,0,0,0,0,0,0,0,0,0,0,0,0,0,0,0,0,0,0,0,0,0,0,0,0,0,0]}],[{"header":{"parameterUnit":"kt","parameterCategory":2,"dx":1,"dy":1,"la1":30.253999710083008,"la2":30.299108505249023,"lo1":-89.0895004272461,"lo2":-89.04439544677734,"nx":28,"ny":28,"refTime":"2022-09-21T09:00:00:Z","depth":0,"parameterNumber":2,"parameterNumberName":"V-component_of_WINDS"},"data":[-3.7325,-3.7414,-3.7438,-3.7552,-3.7592,-3.7675,-3.7712,-3.7763,-3.7809,-3.7912,-3.7975,-3.8008,-3.8065,-3.8148,-3.8219,-3.8232,-3.8262,-3.8279,-3.8292,-3.8196,-3.8184,-3.8173,-3.8154,-3.8284,-3.8284,-3.839,-3.8391,-3.8392,-3.726,-3.73,-3.7366,-3.7446,-3.7503,-3.7502,-3.7566,-3.7615,-3.7688,-3.7745,-3.7808,-3.79,-3.7976,-3.8027,-3.8105,-3.815,-3.8155,-3.817,-3.8168,-3.8178,-3.8075,-3.8054,-3.8165,-3.8165,-3.8165,-3.8165,-3.8165,-3.8165,-3.7148,-3.72,-3.7261,-3.7332,-3.7378,-3.7432,-3.7486,-3.7524,-3.7589,-3.767,-3.7684,-3.7768,-3.783,-3.7932,-3.7972,-3.804,-3.8028,-3.8051,-3.8058,-3.8065,-3.8071,-3.7922,-3.8053,-3.8053,-3.8053,-3.8053,-3.8053,0,-3.7075,-3.709,-3.7153,-3.7224,-3.7277,-3.7333,-3.7389,-3.7423,-3.7462,-3.7514,-3.7592,-3.764,-3.7736,-3.7813,-3.7889,-3.7925,-3.7931,-3.7932,-3.7949,-3.7946,-3.7935,-3.7947,-3.7782,-3.7928,-3.7927,-3.7926,-3.7926,-3.7925,-3.6967,-3.7023,-3.7095,-3.7137,-3.7172,-3.7238,-3.7282,-3.7312,-3.7358,-3.7431,-3.7475,-3.7551,-3.7613,-3.7733,-3.7777,-3.7849,-3.7852,-3.7906,-3.7863,-3.7858,-3.7858,-3.7856,-3.7864,-3.7915,-3.7916,-3.7917,-3.7918,0,-3.6906,-3.6941,-3.7033,-3.7098,-3.7117,-3.7174,-3.7231,-3.7283,-3.7313,-3.739,-3.7409,-3.7456,-3.7531,-3.7566,-3.7657,-3.7674,-3.7775,-3.7774,-3.7756,-3.7759,-3.7814,-3.781,-3.7979,-3.8005,-3.7866,-3.7867,-3.7868,0,-3.683,-3.69,-3.6948,-3.7,-3.7081,-3.7107,-3.7187,-3.722,-3.7271,-3.7331,-3.734,-3.7397,-3.743,-3.7493,-3.7516,-3.7605,-3.762,-3.7639,-3.7645,-3.764,-3.7639,-3.7667,-3.7662,-3.765,-3.765,-3.7649,-3.7648,0,-3.6732,-3.6838,-3.6921,-3.6951,-3.7026,-3.7065,-3.7098,-3.7154,-3.7196,-3.7256,-3.7284,-3.7351,-3.7389,-3.7442,-3.7472,-3.7442,-3.7579,-3.7543,-3.7598,-3.7598,-3.7628,-3.7626,-3.7765,-3.7647,-3.7647,-3.7646,-3.7646,0,-3.6676,-3.6733,-3.6847,-3.6911,-3.6938,-3.6992,-3.706,-3.7113,-3.7171,-3.7189,-3.7236,-3.7245,-3.7321,-3.7284,-3.7391,-3.7344,-3.7382,-3.7405,-3.741,-3.7421,-3.7379,-3.7458,-3.7583,-3.76,-3.743,-3.7428,-3.7426,0,-3.6558,-3.6679,-3.6702,-3.6809,-3.6871,-3.6877,-3.6938,-3.6987,-3.7015,-3.7073,-3.7104,-3.7168,-3.7147,-3.7172,-3.722,-3.7256,-3.7317,-3.7248,-3.7336,-3.7339,-3.7324,-3.744,-3.7451,-3.7552,-3.7403,-3.7406,-3.7408,0,-3.6469,-3.6557,-3.6574,-3.661,-3.6676,-3.6726,-3.6795,-3.6863,-3.6901,-3.6952,-3.7014,-3.7102,-3.7092,-3.7131,-3.7145,-3.7193,-3.7276,-3.7174,-3.7176,-3.7195,-3.7393,-3.7405,-3.7421,-3.7276,-3.7278,-3.7281,-3.7389,0,-3.6385,-3.6447,-3.6493,-3.6567,-3.661,-3.6676,-3.6709,-3.675,-3.676,-3.6787,-3.6874,-3.692,-3.6989,-3.7014,-3.7022,-3.7119,-3.7109,-3.7095,-3.7063,-3.7137,-3.7174,-3.7189,-3.7006,-3.7005,-3.7004,-3.7004,0,0,-3.6265,-3.6355,-3.6375,-3.644,-3.6478,-3.6482,-3.655,-3.6587,-3.6661,-3.6688,-3.667,-3.6801,-3.6838,-3.6941,-3.6966,-3.6992,-3.7014,-3.6985,-3.71,-3.7111,-3.7121,-3.716,-3.7175,-3.7003,-3.7002,-3.7002,-3.7002,0,-3.624,-3.6276,-3.6341,-3.6381,-3.6438,-3.6463,-3.6479,-3.6536,-3.6556,-3.6638,-3.6641,-3.6696,-3.6797,-3.6839,-3.6873,-3.6974,-3.6973,-3.6992,-3.7037,-3.7092,-3.7104,-3.7114,-3.7155,-3.7168,-3.7,-3.7,-3.7,0,-3.6162,-3.6204,-3.6238,-3.632,-3.6357,-3.6417,-3.6392,-3.6455,-3.6501,-3.65,-3.6581,-3.6611,-3.6667,-3.6757,-3.6798,-3.6783,-3.6934,-3.6889,-3.6894,-3.69,-3.6956,-3.6969,-3.6981,-3.6821,-3.682,-3.682,0,0,-3.6137,-3.6193,-3.6246,-3.6316,-3.634,-3.6376,-3.641,-3.6422,-3.6471,-3.649,-3.6527,-3.6576,-3.6636,-3.6675,-3.6732,-3.6824,-3.684,-3.6866,-3.6874,-3.6881,-3.689,-3.6948,-3.6961,-3.6817,-3.6817,-3.6817,0,0,-3.6125,-3.6188,-3.6187,-3.6273,-3.632,-3.6376,-3.6419,-3.642,-3.6474,-3.6469,-3.6492,-3.6506,-3.659,-3.6617,-3.6576,-3.6721,-3.6688,-3.6699,-3.67,-3.6711,-3.6719,-3.6712,-3.6556,0,0,0,0,0,-3.6115,-3.618,-3.6179,-3.6198,-3.63,-3.6376,-3.639,-3.6409,-3.6387,-3.6421,-3.6453,-3.6448,-3.6601,-3.6565,-3.6584,-3.663,-3.678,-3.6787,-3.6793,-3.6817,-3.6828,-3.6837,0,0,0,0,0,0,-3.6123,-3.6146,-3.6178,-3.6236,-3.6259,-3.6374,-3.6341,-3.6348,-3.6384,-3.6382,-3.6442,-3.645,-3.6468,-3.6557,-3.6573,-3.6617,-3.655,-3.6783,-3.6788,-3.6793,-3.682,-3.683,-3.6838,0,0,0,0,0,-3.6129,-3.6147,-3.6304,-3.6235,-3.6255,-3.6297,-3.6339,-3.6344,-3.6373,-3.642,-3.6428,-3.6384,-3.6469,-3.6484,-3.6567,-3.6609,-3.6539,-3.6545,-3.6786,-3.6791,-3.6795,-3.6825,0,0,0,0,0,0,-3.6133,-3.6154,-3.6309,-3.6316,-3.6211,-3.6291,-3.6304,-3.6341,-3.6409,-3.6417,-3.6363,-3.6361,-3.647,-3.6482,-3.6494,-3.6605,-3.653,-3.6536,-3.654,-3.679,-3.6793,-3.6796,0,0,0,0,0,0,-3.6144,-3.6159,-3.6312,-3.6281,-3.6284,-3.6286,-3.6297,-3.6369,-3.6409,-3.6348,-3.6348,-3.6361,-3.6452,-3.648,-3.6489,-3.6601,-3.6523,-3.6529,-3.6533,-3.6535,-3.6792,-3.6795,0,0,0,0,0,0,-3.6151,-3.6164,-3.6279,-3.6282,-3.6285,-3.6364,-3.6349,-3.6452,-3.6382,-3.6345,-3.6376,-3.6373,-3.6451,-3.6461,-3.6487,-3.6594,-3.6599,-3.6523,-3.6527,-3.653,-3.6532,0,0,0,0,0,0,0,-3.6156,-3.6062,-3.6268,-3.6283,-3.6285,-3.638,-3.6382,-3.6384,-3.6381,-3.6379,-3.6377,-3.6375,-3.6488,-3.6495,-3.6502,-3.6589,0,0,-3.6522,-3.6525,0,0,0,0,0,0,0,0,-3.6056,-3.606,-3.6268,-3.627,-3.6271,-3.638,-3.6382,-3.6383,-3.6381,-3.6379,-3.6377,-3.6375,-3.649,-3.6495,-3.6501,0,0,0,0,0,0,0,0,0,0,0,0,0,0,0,-3.6268,-3.6269,0,-3.638,-3.6382,-3.6383,-3.6381,-3.6379,-3.6378,-3.6376,-3.6492,-3.6496,-3.65,0,0,0,0,0,0,0,0,0,0,0,0,0,0,0,0,0,0,0,0,0,0,0,0,0,0,0,0,0,0,0,0,0,0,0,0,0,0,0,0,0,0,0,0,0,0,0,0,0,0,0,0,0,0,0,0,0,0,0,0,0,0,0,0,0,0,0,0,0]}]]]